This is the latest recevied weather packets stored in our database for station/object N4BBA. If no packets are shown the sender has not sent any weather packets the latest 10 day(s).
| Time | Temp. | Humidity | Pressure | Rain* | Wind** | Luminosity | Snow |
|---|---|---|---|---|---|---|---|
| 1778138214 | 18.33° C | 96% | 1010.7 hPa | 0 mm | - | 0 W/m² | - |
| 1778137910 | 18.33° C | 96% | 1010.8 hPa | 0 mm | - | 0 W/m² | - |
| 1778137607 | 18.89° C | 96% | 1010.7 hPa | 0 mm | - | 0 W/m² | - |
| 1778137304 | 18.33° C | 96% | 1010.8 hPa | 0 mm | - | 0 W/m² | - |
| 1778137000 | 18.89° C | 96% | 1011.1 hPa | 0 mm | - | 0 W/m² | - |
| 1778136697 | 18.89° C | 96% | 1010.9 hPa | 0 mm | - | 0 W/m² | - |
| 1778136394 | 18.89° C | 96% | 1010.7 hPa | 0 mm | - | 0 W/m² | - |
| 1778136093 | 18.89° C | 95% | 1010.7 hPa | 0 mm | - | 0 W/m² | - |
| 1778135790 | 18.89° C | 95% | 1011 hPa | 0 mm | - | 0 W/m² | - |
| 1778135487 | 18.89° C | 95% | 1011 hPa | 0 mm | - | 0 W/m² | - |
| 1778135184 | 18.89° C | 95% | 1011 hPa | 0 mm | - | 0 W/m² | - |
| 1778134881 | 18.89° C | 95% | 1011.3 hPa | 0 mm | - | 0 W/m² | - |
| 1778134579 | 18.89° C | 95% | 1011.2 hPa | 0 mm | - | 0 W/m² | - |
| 1778134277 | 18.89° C | 95% | 1011.6 hPa | 0 mm | - | 0 W/m² | - |
| 1778133975 | 18.89° C | 94% | 1011.1 hPa | 0 mm | - | 0 W/m² | - |
| 1778133671 | 18.89° C | 94% | 1011 hPa | 0 mm | - | 0 W/m² | - |
| 1778133366 | 19.44° C | 94% | 1011.1 hPa | 0 mm | - | 0 W/m² | - |
| 1778133063 | 19.44° C | 93% | 1011.4 hPa | 0 mm | - | 0 W/m² | - |
| 1778132759 | 19.44° C | 93% | 1011.3 hPa | 0 mm | - | 0 W/m² | - |
| 1778132456 | 19.44° C | 93% | 1011 hPa | 1.78 mm | - | 0 W/m² | - |
| 1778132154 | 19.44° C | 92% | 1010.8 hPa | 3.05 mm | - | 0 W/m² | - |
| 1778131852 | 19.44° C | 92% | 1011 hPa | 8.89 mm | - | 0 W/m² | - |
| 1778131549 | 19.44° C | 91% | 1011.2 hPa | 18.54 mm | - | 0 W/m² | - |
| 1778131246 | 19.44° C | 90% | 1013 hPa | 10.67 mm | - | 0 W/m² | - |
| 1778130944 | 19.44° C | 90% | 1013.1 hPa | 10.67 mm | - | 0 W/m² | - |
* Rain latest hour (hover to see other rain measurements)
** Current wind speed in m/s (hover to see current wind gust speed)